Location: Peebles
(55.6412°N, 3.1714°W)
Time: 20:55:19
(UTC+00:00)

deb Agena D - Pass Details

Date: 28 September 2023
Orbit: 794 x 979 km, 99.8° (Epoch: 28 November)

Event Time Altitude Azimuth Distance (km) Brightness Sun altitude
Rises 04:26:01 0° 18° (NNE) 3,696 10.3 -22.7°
Reaches altitude 10° 04:29:49 10° 355° (N) 2,744 9.2 -22.2°
Maximum altitude 04:32:43 14° 327° (NNW) 2,459 8.6 -21.9°
Enters shadow 04:35:11 11° 302° (WNW) 2,648 8.5 -21.6°
